Location: Bogis-Bossey
(46.3500°N, 6.1667°E)
Time: 00:59:31
(UTC+00:00)

Cosmos 1536 - Pass Details

Date: 17 August 2022
Orbit: 538 x 553 km, 82.5° (Epoch: 25 September)

Event Time Altitude Azimuth Distance (km) Brightness Sun altitude
Exits shadow 22:21:16 33° 13° (NNE) 932 4.3 -27.9°
Drops below altitude 10° 22:23:31 10° 11° (N) 1,813 6.2 -28.1°
Sets 22:25:41 0° 10° (N) 2,709 7.2 -28.2°
